Tracking 17149 objects as of 22-May-2015
HD Live streaming from Space Station

COSMOS 1742 DEB


COSMOS 1742 DEB is no longer on orbit
COSMOS 1742 DEB is classified as:


NORAD ID: 16743
Int'l Code: 1986-033G
Perigee: N/A
Apogee: N/A
Inclination: N/A
Period: N/A
Semi major axis: N/A
RCS: N/A
Launch date: May 14, 1986
Source: Commonwealth of Independent States (former USSR) (CIS)
Decay date: 1986-06-28

Note: This is SATELLITE DEBRIS
Your satellite tracking list
Your tracking list is empty





NASA's NSSDC Master Catalog

Two Line Element Set (TLE):
1 16743U 86033G   86178.79030135  .05573884 +11665-5 +72406-2 0  9994
2 16743 072.8576 319.7033 0011771 299.7651 061.5961 16.06734325006955

Source of the keplerian elements: AFSPC

N2YO: 398